Theta_e
321 310 307 309 301 298 294 299 305 303 305 313 316 312 310 313 310 303 327 327 330 336 340 340 342 343 342 342 341 342 342 341 339 337 335 333 333 332 330 329 328 328 328 327 327 326 325 323 322
315 309 307 301 295 291 291 298 298 302 313 314 313 312 310 310 319 321 322 326 329 335 339 339 340 342 343 342 342 341 340 338 337 335 333 332 331 330 328 327 326 326 325 325 325 324 323 322 321
304 306 301 294 291 288 291 294 295 301 312 306 309 313 311 311 320 320 324 325 327 328 335 337 339 341 340 340 339 338 337 335 333 332 331 330 329 327 326 325 325 324 323 323 322 321 320 319 319
302 301 296 289 286 287 288 290 293 298 301 309 309 306 315 321 320 321 324 323 323 324 326 332 337 338 337 336 335 334 333 332 331 330 329 328 326 325 324 323 322 322 321 321 320 319 318 316 316
299 295 289 287 286 288 289 291 294 296 300 303 308 305 310 320 322 321 321 322 321 321 322 322 329 331 332 333 332 331 330 329 328 327 326 325 323 321 321 320 320 319 319 319 318 317 316 315 315
296 293 287 284 285 287 288 289 292 294 295 297 306 304 310 320 319 319 321 320 321 320 320 320 320 322 323 324 324 324 324 323 323 321 320 318 317 317 315 313 314 315 315 315 316 316 315 314 315
293 288 285 284 284 286 288 290 291 291 294 298 303 301 312 317 318 319 319 320 320 320 319 317 316 315 315 316 316 316 315 314 313 313 313 313 313 313 312 310 311 313 314 314 315 315 315 314 312
293 289 283 282 284 284 289 289 289 292 295 303 305 300 301 316 319 319 318 318 317 316 317 316 314 310 309 308 312 311 310 311 311 310 309 309 308 308 307 307 309 312 313 313 312 312 312 312 309
293 286 283 283 284 284 288 288 289 295 301 305 310 311 316 318 319 318 317 316 315 315 314 312 310 308 307 308 306 305 306 306 306 305 305 302 299 298 300 305 308 310 310 310 310 310 309 307 303
290 285 284 285 284 284 286 287 286 290 292 298 303 312 314 314 318 314 310 308 308 307 311 312 310 306 307 306 302 300 301 300 300 300 300 301 300 299 303 301 305 305 305 306 307 307 305 299 292
289 286 288 288 290 288 287 287 287 286 287 291 293 305 311 310 307 302 301 301 301 302 303 304 304 305 303 302 302 299 299 298 299 299 299 299 299 297 297 296 295 294 298 294 295 294 293 292 291
287 290 289 291 291 289 287 288 286 287 289 297 304 308 308 301 298 299 299 300 300 301 301 302 301 300 300 301 300 299 298 299 297 297 298 297 296 295 294 294 294 293 293 293 293 292 293 292 292
288 288 291 290 291 289 289 287 285 284 286 302 304 302 298 298 298 298 299 298 298 297 298 299 299 298 299 299 300 300 298 298 297 297 297 296 295 294 294 294 293 293 293 292 292 292 292 292 292
289 290 289 290 289 289 287 285 286 285 286 300 297 296 296 295 295 295 294 293 294 295 295 297 297 297 298 298 299 300 300 299 298 298 298 297 296 294 294 294 294 293 293 293 292 292 292 292 291
289 287 288 288 287 287 287 285 283 284 287 295 295 295 293 292 292 291 292 291 292 293 294 294 294 295 295 295 296 297 298 298 297 297 297 297 298 296 295 294 294 294 293 293 293 292 292 291 292
287 285 282 286 285 287 287 282 283 285 294 294 293 292 290 290 290 290 290 290 289 290 290 291 292 292 292 293 294 295 295 295 295 296 296 296 297 297 296 294 295 295 293 292 292 291 291 290 290
284 280 282 284 285 283 284 280 282 285 289 290 290 290 288 287 287 287 287 286 286 286 286 287 288 288 289 290 291 292 291 292 293 294 294 294 296 296 295 295 296 296 294 293 292 292 290 290 292
279 280 282 280 283 282 278 278 279 282 284 284 288 287 286 285 285 285 285 285 285 284 285 285 286 286 286 287 287 288 287 289 289 291 290 292 293 292 292 293 293 295 294 293 292 290 291 289 291
281 281 277 278 282 279 277 277 279 280 280 281 281 282 282 282 283 284 284 283 283 283 283 283 284 284 284 283 283 283 282 286 285 289 287 288 288 288 289 290 291 292 292 293 294 291 290 291 288
279 277 275 278 280 279 278 277 279 280 279 280 280 279 280 280 281 282 282 281 281 281 281 282 283 283 283 283 283 282 282 284 283 284 285 285 285 286 287 287 287 289 290 291 292 292 291 289 289
278 277 275 277 279 277 276 276 276 278 278 278 278 278 278 279 278 279 280 279 279 279 280 282 282 283 283 283 283 282 282 281 281 282 283 283 284 285 284 284 285 287 288 289 291 292 292 291 294
278 280 279 279 275 270 275 271 275 275 276 278 278 276 277 276 278 279 278 278 278 279 279 281 281 282 283 282 281 280 278 278 280 281 282 283 284 284 284 284 284 285 286 286 288 291 291 292 290
278 280 279 278 272 272 272 267 274 274 275 276 277 277 276 277 277 277 278 279 279 279 279 279 280 281 281 281 280 279 278 280 280 281 280 281 282 283 283 283 283 283 284 284 285 287 289 290 290
281 278 277 275 271 267 264 267 274 273 275 274 276 277 277 276 276 277 278 279 278 278 278 279 280 280 280 280 280 279 278 278 278 279 279 279 280 281 282 282 282 282 282 282 282 284 286 287 288
279 273 268 270 267 270 259 266 276 277 276 276 277 276 276 276 276 276 276 277 277 278 278 279 279 279 279 279 279 279 279 278 278 278 278 278 278 279 279 280 281 281 281 282 282 282 283 286 286
277 272 270 264 266 269 261 268 276 275 275 276 277 277 276 276 277 277 277 277 277 278 278 278 279 279 279 278 278 279 279 279 279 279 278 278 278 278 279 279 280 280 281 281 281 281 282 285 286
276 270 274 263 255 262 268 273 278 276 275 275 276 276 276 276 276 276 277 277 277 277 277 277 278 278 278 278 278 278 278 278 278 278 278 278 278 279 279 279 279 279 280 280 280 281 283 285 285
276 277 271 268 264 263 267 263 274 273 271 274 275 275 275 276 277 277 277 277 277 277 277 277 277 277 277 278 277 278 278 278 278 278 278 277 278 278 277 278 278 278 279 279 279 280 282 284 284
273 271 270 270 270 265 262 269 274 272 270 271 273 276 271 271 275 275 276 277 277 276 275 276 276 276 276 277 277 277 277 278 278 278 277 277 277 277 276 276 277 277 278 279 279 279 281 281 282
276 274 275 269 266 266 266 270 273 267 265 262 271 273 271 269 272 272 274 276 275 274 274 274 275 275 276 276 276 277 277 277 277 276 276 277 276 276 276 276 275 276 276 278 278 279 280 280 281
Wind_Speed
11 8 2 5 6 6 2 1 1 1 2 4 2 6 7 4 4 1 3 11 13 10 9 7 9 10 10 10 11 14 14 15 14 12 8 7 8 9 10 10 10 10 10 11 11 11 11 12 12
5 5 5 3 6 4 3 4 3 3 5 7 5 2 6 5 4 2 5 13 11 10 8 8 12 16 17 15 15 14 14 13 13 11 8 9 9 10 10 11 11 10 10 10 11 11 11 11 12
4 2 5 6 4 4 2 2 3 5 4 2 4 6 3 4 2 3 6 10 11 11 11 10 15 18 17 15 13 12 11 10 10 8 10 10 11 9 9 10 10 11 11 11 11 11 11 11 11
4 5 6 7 4 3 1 5 7 2 3 7 3 7 3 4 3 6 8 10 9 12 13 17 19 19 18 17 17 16 15 13 11 10 10 10 10 10 10 10 10 11 12 12 12 12 12 12 11
5 4 6 5 3 2 4 3 5 4 3 5 4 3 4 3 3 7 8 9 10 10 10 14 20 21 19 16 14 14 13 12 11 11 10 10 10 10 11 11 12 12 12 12 12 12 12 11 11
5 4 6 3 1 3 2 5 3 4 4 4 5 4 3 3 7 7 7 8 7 9 7 10 13 17 16 16 16 15 14 13 12 11 12 11 11 11 11 11 12 11 11 11 11 11 12 12 12
7 6 4 3 2 4 5 8 5 3 4 6 2 4 0 3 6 6 6 6 6 6 8 7 7 9 12 14 14 14 14 14 13 13 12 12 12 12 12 12 12 13 13 13 13 12 13 12 12
5 6 4 3 1 2 6 4 1 6 4 3 4 3 2 3 4 4 5 6 6 7 7 5 5 6 5 6 11 11 11 12 13 12 12 12 12 13 12 12 12 14 13 14 13 14 13 13 12
2 7 3 2 2 1 6 4 6 1 6 5 5 4 5 4 3 3 4 4 4 6 6 6 7 7 6 4 6 8 9 9 9 8 9 7 4 6 7 10 13 14 14 15 15 15 15 13 12
7 6 3 1 1 2 4 4 4 4 4 4 5 6 7 4 4 9 13 11 14 14 12 9 8 6 6 5 5 5 5 4 4 5 5 4 4 4 6 7 12 12 13 13 13 13 12 9 4
5 5 3 3 3 0 2 4 5 1 6 4 1 4 4 7 12 11 11 9 8 7 8 10 10 9 7 6 4 2 2 2 3 5 5 4 4 4 4 3 4 4 7 4 6 6 4 6 4
9 6 3 3 5 2 3 3 6 9 5 5 6 5 9 12 10 8 10 8 9 9 10 11 11 11 10 6 5 5 4 4 4 5 6 4 3 4 4 3 4 4 3 5 4 3 5 6 6
8 2 6 3 7 6 4 6 5 6 8 4 9 12 11 10 10 8 7 9 10 13 13 13 11 11 9 8 7 6 5 4 5 5 6 5 5 5 5 4 4 4 4 4 5 5 4 5 6
3 7 4 6 7 7 6 4 2 4 9 7 11 12 11 14 12 11 13 12 12 10 11 10 10 11 9 9 9 7 6 6 5 5 6 6 4 4 4 5 5 5 3 4 4 5 5 6 5
3 5 4 10 8 4 3 3 5 8 3 8 11 12 13 11 12 12 9 9 8 7 8 11 11 10 9 9 7 6 6 6 5 5 6 7 6 6 6 4 6 5 4 5 4 5 4 5 5
5 5 4 4 13 4 2 4 7 12 5 8 10 10 10 10 9 6 7 7 8 8 10 9 10 11 11 10 7 6 7 5 6 6 6 9 10 9 7 5 6 5 4 3 4 4 5 5 5
9 2 5 5 5 4 7 1 5 8 7 7 8 8 7 5 7 7 7 7 8 7 8 9 10 12 11 10 8 6 7 6 7 6 7 11 11 12 10 8 8 9 7 5 4 4 4 5 7
4 5 4 2 6 6 4 4 2 5 6 4 7 6 5 5 5 5 7 7 7 8 7 8 8 11 11 8 8 5 6 6 6 5 9 11 10 13 11 9 10 10 8 8 5 5 4 5 7
1 2 4 3 2 4 4 5 5 3 4 6 4 5 4 4 3 5 6 6 7 8 9 10 10 10 9 8 9 6 9 7 9 6 11 10 11 13 12 9 11 10 10 10 10 5 6 6 3
4 0 4 6 2 2 5 11 8 8 5 5 6 4 3 2 3 5 6 6 7 6 6 7 8 7 7 6 5 3 6 4 7 6 7 8 12 11 11 12 11 12 11 13 11 8 9 4 4
1 2 2 5 8 1 7 9 5 4 3 2 2 2 2 2 1 3 5 5 6 7 7 7 7 7 6 6 5 6 4 4 5 10 9 10 12 12 13 13 12 12 11 11 12 12 11 11 8
2 2 1 4 5 3 5 8 6 5 7 6 7 6 6 3 1 1 3 4 5 5 5 6 6 6 7 6 7 7 5 7 7 8 9 11 12 12 13 14 14 13 11 13 12 11 12 12 14
2 2 1 2 3 4 4 4 8 3 7 11 9 8 7 6 4 3 3 4 4 5 5 6 5 5 6 6 5 5 8 7 8 9 12 12 10 11 12 12 13 13 12 14 16 16 14 11 13
3 2 5 4 3 4 3 4 8 6 7 3 5 9 8 7 6 4 4 4 5 6 6 6 6 7 7 8 8 8 9 10 10 10 10 9 9 9 11 12 12 12 13 13 14 16 18 15 14
4 5 6 9 7 6 2 2 14 5 5 3 8 9 8 7 5 5 4 5 5 6 7 7 7 9 7 7 7 9 10 11 11 12 10 13 10 10 11 13 13 11 14 15 15 16 17 16 14
4 5 7 6 3 7 1 8 8 1 2 3 4 7 6 7 6 6 6 5 5 6 6 7 8 10 9 8 10 9 10 8 9 10 11 10 10 11 14 14 14 15 15 15 15 13 14 16 12
2 2 2 7 3 5 4 10 8 1 4 3 5 5 9 8 6 7 7 6 6 6 7 7 8 10 10 11 10 10 9 11 11 13 12 10 12 12 14 15 15 16 18 17 15 13 16 14 13
3 1 5 5 5 8 6 7 10 6 7 7 9 10 9 6 6 7 7 7 5 6 6 7 7 10 11 10 8 10 12 11 11 12 14 13 13 14 15 16 15 17 17 17 16 15 14 15 10
3 2 4 3 4 6 5 9 9 8 6 7 9 9 6 6 7 6 6 6 6 6 6 7 7 10 11 11 11 12 12 12 12 12 12 12 14 14 15 15 16 16 16 15 15 16 17 15 14
2 6 6 6 8 4 2 14 2 4 5 4 9 7 5 5 5 6 6 6 6 7 7 8 10 11 11 11 12 13 13 12 13 12 13 12 14 14 15 15 16 16 16 16 17 17 15 16 16
Wind_Direction
329 323 13 38 61 66 75 26 13 185 72 358 352 67 102 51 31 85 297 1 342 341 22 20 44 58 68 75 73 77 71 63 57 49 52 59 48 32 25 23 26 25 23 19 19 22 20 15 14
332 341 37 71 79 68 300 339 70 3 144 134 83 63 56 76 27 62 4 341 341 7 26 36 62 62 65 66 66 63 64 55 51 46 24 25 44 30 19 20 16 20 20 14 15 13 15 14 9
309 30 74 82 94 118 131 351 342 47 125 25 84 46 46 20 74 15 351 348 2 24 24 41 56 65 59 59 59 53 54 57 55 29 28 21 26 25 19 17 14 13 11 11 10 7 8 8 7
20 14 37 75 83 23 23 338 359 5 51 39 90 64 57 38 12 360 4 16 19 26 30 34 46 54 53 45 43 42 38 34 36 26 23 19 15 16 13 7 10 9 6 3 1 2 3 0 0
35 52 57 79 53 48 9 5 332 46 58 19 7 106 74 59 31 26 33 32 32 31 28 39 38 40 40 41 47 44 39 32 27 21 12 22 14 11 9 6 1 2 358 355 355 355 356 357 351
45 88 60 94 107 351 353 4 6 47 27 12 63 78 61 47 30 20 42 43 38 40 32 47 35 42 32 37 31 32 28 25 22 19 14 12 5 3 2 1 355 357 353 349 350 350 350 348 350
102 76 118 113 94 29 338 329 49 51 24 20 12 84 131 53 35 32 39 47 36 37 42 37 32 38 31 32 31 26 22 19 15 12 7 0 351 348 354 354 350 348 347 345 345 341 345 350 347
96 90 78 33 139 52 333 10 16 51 40 356 343 82 110 73 56 41 38 42 35 33 39 28 26 33 29 30 26 19 18 8 3 359 355 355 355 352 344 346 338 338 339 338 340 343 343 342 341
90 65 79 78 99 59 341 35 359 9 84 52 36 55 57 72 56 4 11 26 36 38 36 26 19 16 4 10 18 12 7 4 359 353 347 352 343 336 331 332 334 336 339 338 339 340 340 340 339
62 75 84 19 11 29 344 64 311 59 31 57 68 64 40 5 16 41 34 26 26 23 23 21 22 13 2 9 6 354 347 341 341 340 340 337 328 325 335 332 334 337 334 334 332 333 335 335 319
25 97 152 32 343 353 14 39 351 93 36 23 4 106 45 29 42 49 51 43 33 22 26 16 13 8 2 350 339 336 333 334 333 335 333 324 327 328 329 327 330 330 329 327 327 324 319 321 313
91 42 68 359 2 58 43 334 53 49 351 322 80 79 68 61 55 50 47 30 23 21 16 11 11 4 357 348 349 332 339 346 341 339 336 342 334 329 325 321 316 313 307 305 304 303 301 301 304
70 108 54 20 20 28 77 40 126 47 357 39 71 69 71 69 62 51 42 34 21 22 14 9 7 6 357 1 353 349 346 347 337 342 336 344 330 321 321 310 314 308 316 303 305 301 303 302 302
64 79 60 14 6 29 84 17 113 4 345 72 81 78 65 59 43 42 33 24 20 17 9 0 12 6 1 5 0 359 1 358 360 350 344 342 325 309 302 304 302 297 297 298 295 293 301 302 300
118 68 24 21 339 54 305 19 15 331 306 98 85 77 63 49 42 38 26 27 13 8 4 12 9 4 7 4 1 1 358 2 4 350 347 342 338 320 308 297 298 284 280 286 284 283 279 280 282
53 56 32 29 6 360 37 263 4 349 74 99 94 85 72 51 49 34 26 28 13 11 12 5 9 5 4 2 356 357 359 353 358 354 349 352 343 343 330 317 301 286 275 269 269 279 286 281 279
14 63 4 0 48 316 44 336 331 359 82 96 91 87 73 57 39 28 25 22 13 7 9 12 12 11 2 357 352 348 351 358 355 353 356 351 348 350 345 330 316 315 301 288 271 272 230 282 286
341 12 345 316 318 7 345 237 325 18 90 105 129 120 113 85 49 24 23 15 9 7 9 13 14 10 3 358 350 348 355 348 352 349 354 347 349 345 339 329 327 324 315 301 288 259 257 238 268
197 172 232 248 19 314 246 251 224 177 146 162 153 146 139 101 32 40 28 15 11 18 14 10 7 2 9 4 358 353 349 329 345 351 344 346 346 338 335 330 325 324 318 308 299 286 280 283 242
47 32 310 275 357 334 337 272 217 200 210 199 182 182 136 93 33 20 23 17 18 3 1 8 8 1 10 6 354 337 322 315 313 336 333 340 339 334 332 329 322 321 314 313 309 294 291 266 202
55 110 314 248 329 60 328 286 212 213 173 174 213 189 164 161 52 1 9 7 360 9 359 359 351 350 360 353 345 340 311 317 330 339 335 337 334 332 334 325 319 318 315 310 308 303 289 288 274
295 136 294 300 24 276 24 281 275 212 219 212 208 204 206 209 247 329 351 358 358 346 336 339 339 339 353 341 353 352 337 326 322 314 317 321 323 324 323 323 323 322 318 311 308 303 298 293 285
279 358 256 83 91 24 358 66 268 83 253 230 218 213 218 221 228 260 309 328 325 334 331 321 317 334 331 340 341 333 330 316 313 313 313 313 313 316 313 313 313 315 315 315 312 306 296 288 282
359 74 37 55 91 19 245 121 271 201 215 246 188 202 208 214 229 270 302 322 325 330 335 332 335 337 342 339 329 322 312 309 313 311 312 314 315 313 310 310 311 308 306 308 307 304 295 286 282
44 54 343 355 6 231 332 347 249 247 230 228 212 196 209 215 228 252 293 321 325 334 332 331 336 321 314 307 309 311 307 308 306 314 313 315 313 313 309 312 308 305 304 299 299 299 294 288 281
28 121 144 252 256 272 120 242 260 356 349 302 233 185 193 221 227 241 255 280 303 310 315 316 320 319 316 312 313 308 301 303 304 306 307 304 304 304 306 305 306 302 301 298 298 297 292 287 281
212 60 126 97 71 30 266 291 285 340 292 261 227 210 225 231 237 252 267 271 297 313 307 309 310 316 312 308 305 304 298 300 302 301 300 299 300 301 304 304 303 305 307 306 302 295 290 287 280
99 121 36 8 332 306 286 276 247 289 262 236 238 233 238 240 258 264 269 276 285 293 297 303 301 310 306 303 300 304 304 298 296 298 300 301 301 304 306 306 307 308 308 304 297 293 296 296 291
37 3 40 129 144 202 286 248 210 217 213 228 249 239 226 243 261 291 296 293 291 291 296 303 307 312 313 313 307 304 304 303 301 300 300 300 302 305 305 306 305 300 301 298 294 293 294 294 292
150 199 169 128 257 241 201 273 121 227 245 226 264 256 225 233 275 294 300 305 305 315 322 322 317 313 313 311 307 304 304 304 303 300 302 303 304 306 305 307 305 303 303 303 299 294 296 296 293